When you browse on this site, cookies collect data to enhance your experience and personalize the content and advertising you see.
Visit our Privacy Policy to learn more. By continuing to use the site, you agree to this use of cookies and data.
  • In Switzerland
  • List of Countries
  • For 7 days
  • Water Temperature
  • Satellite Maps
  • Weather Map
  • Weather Widgets
  • user-avatar
    Login

    Hourly Weather Namibe

    Today, 17 June, Monday

    Time Temperature Precipitation Wind Pressure Humidity
    00:00 +23°C° 0 mm 2 mps 762 mmHg 54%
    01:00 +22°C° 0 mm 3 mps 762 mmHg 52%
    02:00 +23°C° 0 mm 2 mps 762 mmHg 51%
    03:00 +21°C° 0 mm 2 mps 761 mmHg 50%
    04:00 +21°C° 0 mm 2 mps 761 mmHg 49%
    05:00 +21°C° 0 mm 2 mps 761 mmHg 48%
    06:00 +21°C° 0 mm 2 mps 762 mmHg 47%
    07:00 +21°C° 0 mm 2 mps 762 mmHg 45%
    08:00 +25°C° 0 mm 2 mps 762 mmHg 38%
    09:00 +28°C° 0 mm 2 mps 762 mmHg 30%
    10:00 +30°C° 0 mm 2 mps 762 mmHg 23%
    11:00 +31°C° 0 mm 3 mps 761 mmHg 23%
    12:00 +33°C° 0 mm 4 mps 761 mmHg 23%
    13:00 +34°C° 0 mm 5 mps 760 mmHg 23%
    14:00 +32°C° 0 mm 5 mps 760 mmHg 28%
    15:00 +30°C° 0 mm 5 mps 759 mmHg 33%
    16:00 +29°C° 0 mm 5 mps 759 mmHg 38%
    17:00 +27°C° 0 mm 4 mps 759 mmHg 44%
    18:00 +25°C° 0 mm 3 mps 759 mmHg 50%
    19:00 +24°C° 0 mm 2 mps 760 mmHg 56%
    20:00 +23°C° 0 mm 2 mps 760 mmHg 54%
    21:00 +23°C° 0 mm 2 mps 761 mmHg 53%
    22:00 +23°C° 0 mm 2 mps 761 mmHg 51%
    23:00 +23°C° 0 mm 2 mps 761 mmHg 50%

    Tomorrow, 18 June, Tuesday

    Time Temperature Precipitation Wind Pressure Humidity
    00:00 +22°C° 0 mm 3 mps 761 mmHg 50%
    01:00 +21°C° 0 mm 3 mps 761 mmHg 49%
    02:00 +21°C° 0 mm 3 mps 761 mmHg 49%
    03:00 +21°C° 0 mm 3 mps 761 mmHg 50%
    04:00 +21°C° 0 mm 3 mps 760 mmHg 50%
    05:00 +21°C° 0 mm 3 mps 761 mmHg 50%
    06:00 +20°C° 0 mm 3 mps 761 mmHg 51%
    07:00 +20°C° 0 mm 3 mps 761 mmHg 52%
    08:00 +24°C° 0 mm 3 mps 761 mmHg 44%
    09:00 +27°C° 0 mm 3 mps 761 mmHg 37%
    10:00 +30°C° 0 mm 3 mps 761 mmHg 29%
    11:00 +30°C° 0 mm 3 mps 761 mmHg 30%
    12:00 +32°C° 0 mm 4 mps 760 mmHg 31%
    13:00 +32°C° 0 mm 4 mps 759 mmHg 32%
    14:00 +32°C° 0 mm 4 mps 759 mmHg 35%
    15:00 +30°C° 0 mm 4 mps 758 mmHg 37%
    16:00 +29°C° 0 mm 4 mps 758 mmHg 40%
    17:00 +27°C° 0 mm 3 mps 758 mmHg 46%
    18:00 +25°C° 0 mm 2 mps 759 mmHg 53%
    19:00 +24°C° 0 mm 2 mps 759 mmHg 59%
    20:00 +24°C° 0 mm 2 mps 759 mmHg 55%
    21:00 +24°C° 0 mm 2 mps 759 mmHg 51%
    22:00 +24°C° 0 mm 2 mps 760 mmHg 47%
    23:00 +24°C° 0 mm 2 mps 760 mmHg 46%

    Day after tomorrow, 19 June, Wednesday

    Time Temperature Precipitation Wind Pressure Humidity
    00:00 +24°C° 0 mm 2 mps 760 mmHg 45%
    01:00 +24°C° 0 mm 2 mps 759 mmHg 44%
    02:00 +24°C° 0 mm 2 mps 759 mmHg 45%
    03:00 +23°C° 0 mm 2 mps 759 mmHg 46%
    04:00 +23°C° 0 mm 2 mps 759 mmHg 46%
    05:00 +23°C° 0 mm 2 mps 760 mmHg 47%
    06:00 +23°C° 0 mm 1 mps 760 mmHg 48%
    07:00 +22°C° 0 mm 1 mps 760 mmHg 49%
    08:00 +25°C° 0 mm 1 mps 761 mmHg 42%
    09:00 +28°C° 0 mm 1 mps 761 mmHg 34%
    10:00 +31°C° 0 mm 2 mps 761 mmHg 27%
    11:00 +32°C° 0 mm 2 mps 760 mmHg 28%
    12:00 +33°C° 0 mm 3 mps 760 mmHg 29%
    13:00 +33°C° 0 mm 4 mps 759 mmHg 30%
    14:00 +32°C° 0 mm 4 mps 759 mmHg 34%
    15:00 +29°C° 0 mm 4 mps 759 mmHg 39%
    16:00 +28°C° 0 mm 4 mps 758 mmHg 44%
    17:00 +26°C° 0 mm 3 mps 759 mmHg 51%
    18:00 +25°C° 0 mm 2 mps 759 mmHg 58%
    19:00 +24°C° 0 mm 2 mps 760 mmHg 64%
    20:00 +24°C° 0 mm 2 mps 760 mmHg 62%
    21:00 +24°C° 0 mm 2 mps 761 mmHg 61%
    22:00 +22°C° 0 mm 3 mps 761 mmHg 59%
    23:00 +24°C° 0 mm 2 mps 761 mmHg 56%

    20 June, Thursday

    Time Temperature Precipitation Wind Pressure Humidity
    00:00 +24°C° 0 mm 2 mps 761 mmHg 53%
    01:00 +24°C° 0 mm 2 mps 761 mmHg 50%
    02:00 +24°C° 0 mm 2 mps 761 mmHg 48%
    03:00 +24°C° 0 mm 2 mps 761 mmHg 47%
    04:00 +24°C° 0 mm 3 mps 760 mmHg 46%
    05:00 +24°C° 0 mm 2 mps 760 mmHg 45%
    06:00 +24°C° 0 mm 2 mps 761 mmHg 44%
    07:00 +24°C° 0 mm 2 mps 761 mmHg 44%
    08:00 +27°C° 0 mm 2 mps 761 mmHg 36%
    09:00 +30°C° 0 mm 2 mps 761 mmHg 29%
    10:00 +34°C° 0 mm 2 mps 761 mmHg 22%
    11:00 +35°C° 0 mm 2 mps 760 mmHg 21%
    12:00 +36°C° 0 mm 3 mps 759 mmHg 20%
    13:00 +37°C° 0 mm 3 mps 759 mmHg 19%
    14:00 +36°C° 0 mm 3 mps 758 mmHg 21%
    15:00 +35°C° 0 mm 4 mps 758 mmHg 23%
    16:00 +34°C° 0 mm 4 mps 758 mmHg 26%
    17:00 +30°C° 0 mm 4 mps 758 mmHg 32%
    18:00 +28°C° 0 mm 3 mps 759 mmHg 38%
    19:00 +26°C° 0 mm 3 mps 759 mmHg 43%
    20:00 +25°C° 0 mm 2 mps 760 mmHg 46%
    21:00 +24°C° 0 mm 2 mps 760 mmHg 48%
    22:00 +24°C° 0 mm 1 mps 760 mmHg 50%
    23:00 +23°C° 0 mm 1 mps 760 mmHg 52%

    21 June, Friday

    Time Temperature Precipitation Wind Pressure Humidity
    00:00 +23°C° 0 mm 1 mps 760 mmHg 53%
    01:00 +22°C° 0 mm 1 mps 760 mmHg 55%
    02:00 +23°C° 0 mm 1 mps 760 mmHg 51%
    03:00 +23°C° 0 mm 2 mps 759 mmHg 47%
    04:00 +24°C° 0 mm 2 mps 759 mmHg 43%
    05:00 +24°C° 0 mm 2 mps 759 mmHg 38%
    06:00 +25°C° 0 mm 3 mps 760 mmHg 33%
    07:00 +25°C° 0 mm 4 mps 760 mmHg 29%
    08:00 +28°C° 0 mm 3 mps 760 mmHg 25%
    09:00 +31°C° 0 mm 3 mps 760 mmHg 21%
    10:00 +35°C° 0 mm 3 mps 760 mmHg 17%
    11:00 +35°C° 0 mm 3 mps 759 mmHg 17%
    12:00 +36°C° 0 mm 3 mps 759 mmHg 17%
    13:00 +37°C° 0 mm 3 mps 758 mmHg 18%
    14:00 +35°C° 0 mm 4 mps 757 mmHg 22%
    15:00 +33°C° 0 mm 4 mps 757 mmHg 27%
    16:00 +32°C° 0 mm 5 mps 757 mmHg 31%
    17:00 +29°C° 0 mm 4 mps 757 mmHg 39%
    18:00 +27°C° 0 mm 3 mps 758 mmHg 48%
    19:00 +25°C° 0 mm 3 mps 758 mmHg 56%
    20:00 +24°C° 0 mm 2 mps 759 mmHg 57%
    21:00 +24°C° 0 mm 2 mps 759 mmHg 57%
    22:00 +24°C° 0 mm 2 mps 760 mmHg 58%
    23:00 +23°C° 0 mm 2 mps 759 mmHg 57%

    22 June, Saturday

    Time Temperature Precipitation Wind Pressure Humidity
    00:00 +23°C° 0 mm 1 mps 759 mmHg 56%
    01:00 +22°C° 0 mm 1 mps 759 mmHg 55%
    02:00 +22°C° 0 mm 1 mps 759 mmHg 56%
    03:00 +22°C° 0 mm 1 mps 759 mmHg 56%
    04:00 +22°C° 0 mm 1 mps 758 mmHg 57%
    05:00 +22°C° 0 mm 1 mps 759 mmHg 55%
    06:00 +22°C° 0 mm 1 mps 759 mmHg 53%
    07:00 +21°C° 0 mm 2 mps 759 mmHg 51%
    08:00 +25°C° 0 mm 2 mps 760 mmHg 45%
    09:00 +27°C° 0 mm 2 mps 760 mmHg 40%
    10:00 +29°C° 0 mm 3 mps 760 mmHg 34%
    11:00 +30°C° 0 mm 3 mps 759 mmHg 36%
    12:00 +30°C° 0 mm 4 mps 759 mmHg 38%
    13:00 +30°C° 0 mm 4 mps 758 mmHg 39%
    14:00 +29°C° 0 mm 4 mps 758 mmHg 45%
    15:00 +28°C° 0 mm 5 mps 758 mmHg 51%
    16:00 +27°C° 0 mm 5 mps 757 mmHg 56%
    17:00 +26°C° 0 mm 4 mps 758 mmHg 67%
    18:00 +25°C° 0 mm 4 mps 759 mmHg 77%
    19:00 +22°C° 0 mm 3 mps 759 mmHg 88%
    20:00 +23°C° 0 mm 2 mps 760 mmHg 89%
    21:00 +23°C° 0 mm 2 mps 760 mmHg 91%
    22:00 +23°C° 0 mm 1 mps 761 mmHg 92%
    23:00 +22°C° 0 mm 1 mps 760 mmHg 92%
    Show more